Weather History for Coldwater, MI

Change the Weather History Date:

Wednesday, September 4, 2013

  Actual Average (KJYM) Record (KJYM)
Temperature  
Mean Temperature 64 °F -  
Max Temperature 79 °F 77 °F 91 °F (1960)
Min Temperature 50 °F 53 °F 38 °F (1974)
Growing Degree Days 14 (Base 50)    
Moisture  
Dew Point 56 °F    
Average Humidity 76    
Maximum Humidity 99    
Minimum Humidity 45    
Precipitation  
Precipitation 0.00 in - - ()
Sea Level Pressure  
Sea Level Pressure 30.09 in    
Wind  
Wind Speed 3 mph (West)    
Max Wind Speed 15 mph    
Max Gust Speed 18 mph    
Visibility 9 miles    
Events      
Averages and records for this station are not official NWS values.
T = Trace of Precipitation, MM = Missing Value Source: NWS Daily Summary

Daily Weather History Graph

Daily Weather History Graph

Search for Another Location

Airport:

Trip Planner

Search our weather history database for the weather conditions in past years. The results will help you decide how hot, cold, wet, or windy it might be!

Date:

Astronomy

Sep. 04, 2013 Rise Set
Actual Time 7:09 AM EDT 8:08 PM EDT
Civil Twilight 6:40 AM EDT 8:36 PM EDT
Nautical Twilight 6:06 AM EDT 9:10 PM EDT
Astronomical Twilight 5:31 AM EDT 9:45 PM EDT
Moon 6:20 AM EDT (9/4) 7:26 PM EDT (9/4)
Length of Visible Light 13h 55m
Length of Day
12h 59m
Waning Crescent, 1% of the Moon is Illuminated
Sep 4
Waning Crescent
Sep 5
New
Sep 12
First Quarter
Sep 19
Full
Sep 26
Last Quarter

Hourly Weather History & Observations

Time (EDT) Temp. Dew Point Humidity Pressure Visibility Wind Dir Wind Speed Gust Speed Precip Events Conditions
12:14 AM 54.7 °F 53.8 °F 97% 30.05 in 10.0 mi Calm Calm - N/A   Clear
12:35 AM 54.3 °F 53.6 °F 97% 30.05 in 10.0 mi Calm Calm - N/A   Clear
12:55 AM 53.8 °F 53.2 °F 98% 30.05 in 10.0 mi Calm Calm - N/A   Clear
1:14 AM 52.7 °F 51.8 °F 97% 30.06 in 10.0 mi Calm Calm - N/A   Clear
1:35 AM 52.7 °F 51.8 °F 97% 30.06 in 10.0 mi Calm Calm - N/A   Clear
1:55 AM 52.7 °F 52.2 °F 98% 30.06 in 10.0 mi Calm Calm - N/A   Clear
2:15 AM 52.7 °F 52.0 °F 97% 30.07 in 2.0 mi Calm Calm - N/A   Clear
2:35 AM 52.9 °F 52.3 °F 98% 30.07 in 10.0 mi Calm Calm - N/A   Clear
2:55 AM 51.4 °F 50.9 °F 98% 30.07 in 7.0 mi Calm Calm - N/A   Clear
3:15 AM 51.1 °F 50.5 °F 98% 30.07 in 4.0 mi Calm Calm - N/A   Clear
3:35 AM 50.9 °F 50.4 °F 98% 30.08 in 10.0 mi Calm Calm - N/A   Clear
3:54 AM 51.6 °F 50.9 °F 97% 30.08 in 7.0 mi Calm Calm - N/A   Clear
4:15 AM 51.8 °F 51.1 °F 97% 30.08 in 7.0 mi Calm Calm - N/A   Clear
4:35 AM 52.5 °F 52.0 °F 98% 30.08 in 7.0 mi Calm Calm - N/A   Clear
4:54 AM 52.5 °F 51.8 °F 97% 30.08 in 7.0 mi Calm Calm - N/A   Clear
5:15 AM 52.0 °F 51.4 °F 98% 30.08 in 4.0 mi WSW 3.5 mph - N/A   Clear
5:35 AM 51.8 °F 51.3 °F 98% 30.09 in 4.0 mi Calm Calm - N/A   Clear
5:54 AM 51.8 °F 51.3 °F 98% 30.09 in 3.0 mi Calm Calm - N/A   Clear
6:15 AM 50.7 °F 50.2 °F 98% 30.09 in 1.2 mi WSW 3.5 mph - N/A   Mist
6:34 AM 51.3 °F 50.9 °F 99% 30.09 in 5.0 mi Calm Calm - N/A   Clear
6:55 AM 51.1 °F 50.7 °F 99% 30.10 in 3.0 mi Calm Calm - N/A   Clear
7:15 AM 50.9 °F 50.5 °F 99% 30.10 in 3.0 mi Calm Calm - N/A   Clear
7:34 AM 51.3 °F 50.9 °F 99% 30.11 in 4.0 mi WSW 3.5 mph - N/A   Clear
7:55 AM 53.6 °F 53.2 °F 99% 30.11 in 5.0 mi WSW 3.5 mph - N/A   Clear
8:15 AM 55.8 °F 55.0 °F 97% 30.11 in 7.0 mi SW 4.6 mph - N/A   Clear
8:35 AM 57.4 °F 55.8 °F 94% 30.11 in 7.0 mi WSW 5.8 mph - N/A   Clear
8:55 AM 59.0 °F 56.8 °F 93% 30.12 in 10.0 mi WSW 5.8 mph - N/A   Clear
9:15 AM 61.0 °F 57.6 °F 88% 30.12 in 10.0 mi WSW 6.9 mph - N/A   Clear
9:35 AM 62.8 °F 58.3 °F 85% 30.12 in 10.0 mi WSW 8.1 mph - N/A   Clear
9:55 AM 65.3 °F 59.2 °F 81% 30.11 in 10.0 mi WSW 6.9 mph - N/A   Clear
10:14 AM 66.9 °F 59.5 °F 77% 30.12 in 10.0 mi WSW 6.9 mph - N/A   Clear
10:35 AM 69.4 °F 59.9 °F 72% 30.11 in 10.0 mi West 12.7 mph - N/A   Clear
10:55 AM 70.3 °F 60.1 °F 70% 30.11 in 10.0 mi WSW 8.1 mph - N/A   Clear
11:15 AM 71.6 °F 59.9 °F 66% 30.11 in 10.0 mi West 11.5 mph - N/A   Clear
11:35 AM 72.7 °F 57.9 °F 60% 30.11 in 10.0 mi West 12.7 mph - N/A   Clear
11:55 AM 73.8 °F 58.3 °F 58% 30.11 in 10.0 mi WNW 11.5 mph 18.4 mph N/A   Clear
12:15 PM 74.5 °F 60.1 °F 61% 30.11 in 10.0 mi West 10.4 mph - N/A   Clear
12:35 PM 74.8 °F 59.9 °F 60% 30.11 in 10.0 mi West 8.1 mph 17.3 mph N/A   Scattered Clouds
12:55 PM 75.9 °F 58.1 °F 54% 30.11 in 10.0 mi West 12.7 mph - N/A   Clear
1:15 PM 76.5 °F 59.0 °F 55% 30.11 in 10.0 mi West 8.1 mph 16.1 mph N/A   Clear
1:35 PM 77.2 °F 57.6 °F 51% 30.10 in 10.0 mi WNW 10.4 mph 16.1 mph N/A   Clear
1:54 PM 77.4 °F 57.7 °F 51% 30.10 in 10.0 mi West 15.0 mph - N/A   Clear
2:15 PM 78.1 °F 58.6 °F 51% 30.11 in 10.0 mi WNW 10.4 mph 17.3 mph N/A   Clear
2:35 PM 78.6 °F 59.2 °F 51% 30.11 in 10.0 mi WNW 12.7 mph - N/A   Clear
2:54 PM 79.0 °F 57.7 °F 48% 30.10 in 10.0 mi West 8.1 mph - N/A   Clear
3:15 PM 79.2 °F 57.2 °F 47% 30.10 in 10.0 mi WNW 12.7 mph 18.4 mph N/A   Clear
3:35 PM 78.8 °F 56.3 °F 46% 30.09 in 10.0 mi NW 11.5 mph - N/A   Clear
3:54 PM 79.9 °F 57.2 °F 46% 30.09 in 10.0 mi West 11.5 mph 18.4 mph N/A   Clear
4:15 PM 78.8 °F 55.6 °F 45% 30.08 in 10.0 mi West 9.2 mph 17.3 mph N/A   Clear
4:35 PM 79.2 °F 55.9 °F 45% 30.08 in 10.0 mi West 12.7 mph 17.3 mph N/A   Clear
4:55 PM 77.4 °F 55.9 °F 47% 30.08 in 10.0 mi West 11.5 mph - N/A   Clear
5:15 PM 77.7 °F 56.8 °F 48% 30.07 in 10.0 mi West 6.9 mph - N/A   Clear
5:35 PM 77.2 °F 55.9 °F 48% 30.08 in 10.0 mi WNW 8.1 mph - N/A   Clear
5:55 PM 76.8 °F 57.2 °F 51% 30.08 in 10.0 mi NW 6.9 mph - N/A   Clear
6:15 PM 75.2 °F 55.9 °F 51% 30.08 in 10.0 mi NW 9.2 mph - N/A   Clear
6:34 PM 74.3 °F 57.2 °F 55% 30.08 in 10.0 mi NW 5.8 mph - N/A   Clear
6:55 PM 74.7 °F 57.4 °F 55% 30.08 in 10.0 mi WNW 4.6 mph - N/A   Clear
7:15 PM 73.4 °F 57.2 °F 57% 30.08 in 10.0 mi West 6.9 mph - N/A   Clear
7:34 PM 72.5 °F 56.5 °F 57% 30.08 in 10.0 mi West 8.1 mph - N/A   Clear
7:55 PM 70.7 °F 55.9 °F 59% 30.08 in 10.0 mi West 5.8 mph - N/A   Clear
8:15 PM 68.4 °F 56.3 °F 65% 30.09 in 10.0 mi West 4.6 mph - N/A   Clear
8:34 PM 68.5 °F 56.1 °F 64% 30.10 in 10.0 mi WNW 4.6 mph - N/A   Clear
8:55 PM 66.7 °F 56.7 °F 70% 30.11 in 10.0 mi West 4.6 mph - N/A   Clear
9:14 PM 65.7 °F 57.2 °F 74% 30.11 in 10.0 mi West 3.5 mph - N/A   Clear
9:35 PM 65.1 °F 57.2 °F 75% 30.11 in 10.0 mi Calm Calm - N/A   Clear
9:55 PM 63.0 °F 57.9 °F 84% 30.12 in 10.0 mi Calm Calm - N/A   Clear
10:14 PM 64.0 °F 57.2 °F 78% 30.12 in 10.0 mi West 3.5 mph - N/A   Clear
10:35 PM 62.8 °F 57.2 °F 82% 30.12 in 10.0 mi Calm Calm - N/A   Clear
10:55 PM 62.6 °F 57.0 °F 82% 30.12 in 10.0 mi West 3.5 mph - N/A   Clear
11:14 PM 61.2 °F 57.2 °F 87% 30.13 in 10.0 mi Calm Calm - N/A   Clear
11:35 PM 60.1 °F 56.7 °F 88% 30.13 in 10.0 mi Calm Calm - N/A   Clear
11:55 PM 59.5 °F 56.5 °F 90% 30.13 in 10.0 mi Calm Calm - N/A   Clear